Wetbulb
48.00 48.58 49.01 48.83 48.49 47.87 47.32 47.14 47.83 47.81 47.33 46.54 46.54 46.39 46.15 45.97 45.47 45.23 44.95 44.83 44.83 44.67 44.39 44.48 44.48 44.40 44.45 44.71 44.66 44.23 43.71 43.36 43.49 44.18 44.48 43.70 43.15 43.00 42.90 42.75 42.61 42.61 42.70 42.93 42.93 42.76 42.72 42.89 43.20 43.57 43.97 44.10 43.65 43.23 42.99 43.02 42.84 42.80 42.77 42.59 42.42 42.19 42.00 41.78 41.52 41.50 41.69 41.70 42.25
48.05 48.47 49.01 49.58 49.18 48.40 47.65 47.44 47.83 47.73 47.20 46.65 46.69 46.32 45.90 45.91 45.48 45.16 44.76 44.39 44.64 44.56 44.44 44.40 44.36 44.32 44.53 44.83 44.62 44.10 43.37 42.98 43.10 43.44 43.65 43.09 42.64 42.54 42.56 42.54 42.49 42.48 42.44 42.35 42.32 42.28 42.29 42.49 42.85 43.26 43.58 43.79 43.42 43.13 43.07 43.61 43.07 42.54 42.07 41.88 41.93 41.97 41.92 41.58 41.40 41.49 41.63 41.73 41.98
48.27 48.54 48.64 48.56 48.20 47.90 47.66 47.50 47.14 46.50 45.94 45.94 46.06 45.97 45.67 45.49 45.39 45.18 44.94 44.66 44.36 44.24 44.28 44.32 44.23 44.27 44.27 44.27 43.97 43.50 43.07 42.56 42.55 42.49 42.35 42.34 42.25 42.24 42.22 42.11 42.23 42.55 42.82 42.40 41.91 41.80 41.98 42.23 42.74 43.34 43.65 43.49 42.88 42.51 42.21 42.25 42.63 42.19 41.60 41.31 41.81 41.99 42.13 42.10 41.58 41.57 41.71 42.02 41.82
48.03 48.22 48.15 48.02 47.60 47.50 47.56 47.65 46.92 46.29 45.91 45.94 45.65 45.47 45.35 45.22 45.21 45.00 44.62 44.23 44.10 43.97 43.97 43.83 43.92 44.01 43.97 43.84 43.41 43.11 43.07 43.33 42.64 42.16 41.92 41.87 41.95 41.99 41.93 41.79 41.94 42.02 41.87 41.91 41.78 41.70 41.71 41.97 42.41 42.90 42.98 42.48 41.97 41.80 41.95 42.13 42.23 42.10 41.88 41.62 41.81 41.81 41.90 42.26 41.98 42.07 42.20 42.14 41.97
47.72 48.02 48.14 48.14 47.70 47.63 47.60 47.29 46.92 46.50 46.24 46.11 45.90 45.52 45.18 44.88 44.71 44.45 44.23 44.10 43.75 43.62 43.62 43.47 43.57 43.44 43.44 43.45 43.11 42.89 42.94 43.49 43.89 42.86 41.64 41.44 41.49 41.35 41.43 41.47 41.57 41.63 41.66 41.74 41.87 41.84 41.90 41.94 42.28 42.45 42.42 42.07 42.22 42.12 41.83 41.56 41.47 41.70 42.08 42.46 42.21 42.07 42.10 42.27 42.31 42.35 42.39 42.48 42.18
47.52 47.38 47.33 47.61 47.52 47.23 47.07 46.95 46.59 46.37 46.15 46.03 45.60 45.31 45.05 44.88 44.58 44.27 43.97 43.75 43.40 43.38 43.68 44.25 44.04 43.82 43.48 42.92 42.71 42.59 42.50 42.58 42.81 42.13 41.18 40.82 40.81 40.94 41.07 41.11 41.12 41.21 41.45 41.66 41.88 41.99 41.95 41.83 42.32 42.54 42.47 42.59 42.11 41.73 41.51 41.47 41.33 41.54 41.78 42.13 42.10 42.14 42.11 41.82 42.18 42.18 41.96 41.66 41.19
47.08 46.81 46.68 46.86 46.91 46.82 46.70 46.33 46.33 45.99 45.69 45.48 45.18 44.92 44.66 44.49 44.18 43.79 43.44 43.40 43.43 43.77 44.51 45.31 44.47 43.87 43.27 42.49 42.45 42.33 42.20 42.07 41.73 41.40 41.02 40.71 40.60 40.60 40.68 40.71 40.87 41.11 41.44 41.68 41.88 41.92 41.86 41.75 42.05 42.42 42.91 43.39 42.99 42.07 41.29 41.05 41.18 41.26 41.36 41.55 41.98 42.19 41.94 41.09 41.80 41.80 41.27 40.38 40.25
46.38 46.28 46.32 46.48 46.61 46.49 46.24 46.16 46.15 45.82 45.48 45.47 45.01 44.53 44.18 43.88 43.70 43.53 43.49 43.27 43.43 43.99 44.47 44.69 43.50 42.85 42.56 42.23 42.02 41.89 41.76 41.37 41.39 41.23 41.06 40.93 40.56 40.34 40.32 40.48 40.64 40.81 41.06 41.38 41.53 41.61 41.68 41.76 41.89 41.68 41.63 41.95 42.41 41.80 40.83 40.44 40.46 40.46 40.54 40.64 41.59 41.81 41.53 41.25 41.43 41.25 40.82 40.21 39.81
45.74 45.78 45.91 46.12 46.24 46.15 46.07 46.03 45.73 45.51 45.22 44.79 44.49 44.23 44.05 43.84 43.54 43.50 43.45 43.36 43.78 44.12 44.16 43.76 43.05 42.49 42.12 41.78 41.49 41.32 41.30 41.27 41.13 41.05 41.01 40.70 40.47 40.31 40.28 40.36 40.44 40.48 40.51 40.77 40.90 40.99 40.94 41.03 41.41 41.38 41.28 41.52 41.63 40.97 40.34 40.17 39.89 39.79 39.87 40.14 40.50 40.72 40.80 40.88 40.75 40.45 40.01 39.57 39.35
45.53 45.57 45.74 45.87 45.79 45.78 45.73 45.52 45.26 44.96 44.53 44.28 44.10 44.14 44.40 44.92 44.15 43.63 43.50 43.89 44.18 43.94 43.49 43.13 42.84 42.51 42.09 41.57 41.36 41.02 40.81 40.65 40.79 40.83 40.86 40.98 40.79 40.55 40.30 40.31 40.23 40.10 40.09 40.05 39.98 40.08 40.18 40.32 40.51 40.60 40.65 40.73 40.28 39.97 39.89 40.11 39.66 39.44 39.65 40.32 40.34 40.07 39.79 39.99 39.92 39.75 39.57 39.44 38.99
45.52 45.61 45.79 45.92 45.57 45.61 45.57 44.96 44.83 44.66 44.45 44.15 43.84 43.93 44.27 44.83 43.93 43.50 43.54 43.75 43.69 43.28 42.87 42.98 42.82 42.53 42.11 41.81 41.42 41.11 40.89 40.68 40.77 40.85 40.92 41.11 41.10 40.73 40.39 40.24 40.03 39.77 39.60 39.38 39.26 39.23 39.45 39.80 39.93 40.03 40.10 40.43 40.11 39.84 39.57 39.53 39.21 39.03 39.07 39.38 39.63 39.36 38.98 39.03 39.07 39.03 38.89 38.67 38.50
45.57 45.48 45.43 45.39 45.22 45.18 45.01 44.62 44.49 44.36 44.06 43.89 43.76 43.63 43.67 43.63 43.15 43.23 43.36 43.08 42.94 42.80 42.71 42.72 42.61 42.36 42.11 42.07 41.62 41.53 41.35 40.63 40.62 40.84 41.00 40.94 40.79 40.52 40.28 40.05 39.79 39.41 39.15 38.85 38.80 38.79 39.04 39.08 39.29 39.43 39.64 39.79 39.75 39.56 39.12 38.69 38.46 38.28 38.19 38.23 38.18 38.09 37.95 38.05 38.09 38.21 38.15 37.80 37.82
45.52 45.30 45.03 44.81 44.73 44.61 44.48 44.22 44.01 43.88 43.71 43.63 43.50 43.46 43.37 43.24 43.15 43.15 43.10 42.56 42.69 42.69 42.69 42.55 42.35 42.05 41.82 41.69 41.50 41.36 41.18 40.87 40.89 40.98 41.02 40.69 40.50 40.19 39.83 39.60 39.26 38.92 38.57 38.26 38.37 38.44 38.48 38.32 38.52 38.57 38.69 38.84 38.98 38.88 38.66 38.10 37.67 37.35 37.13 37.04 36.86 36.76 36.71 36.90 36.94 37.15 37.23 37.19 37.20
45.13 44.91 44.64 44.42 44.43 44.35 44.13 43.70 43.57 43.49 43.40 43.14 43.06 43.03 42.94 42.76 43.02 43.07 42.85 42.36 42.31 42.31 42.30 42.29 42.29 42.21 41.90 41.40 41.26 41.08 40.95 40.95 40.88 40.60 40.37 40.27 40.00 39.61 39.17 38.99 38.52 38.09 37.78 37.63 37.88 38.01 37.97 37.63 37.53 37.50 37.37 37.54 37.68 37.80 37.71 37.39 37.09 36.88 36.60 36.27 35.97 35.83 35.86 36.08 36.13 36.31 36.44 36.45 36.69
44.70 44.52 44.39 44.30 44.12 44.05 43.83 43.26 43.40 43.32 43.19 42.92 42.81 42.73 42.69 42.65 42.99 42.95 42.65 41.99 41.89 42.01 42.09 42.00 41.95 41.94 41.64 41.20 40.84 40.65 40.61 40.69 40.45 40.25 39.93 39.57 39.13 38.78 38.47 38.12 37.83 37.40 37.21 37.07 37.35 37.45 37.47 37.28 36.87 36.55 36.38 36.38 36.62 36.81 36.80 36.62 36.45 36.45 36.35 36.15 35.83 35.69 35.59 35.53 35.49 35.62 35.67 35.59 35.36
44.44 44.22 44.22 44.17 43.96 43.75 43.40 43.05 43.28 43.24 43.02 42.85 42.48 42.36 42.32 42.36 42.58 42.54 42.28 41.74 41.91 41.95 41.81 41.46 41.28 40.97 40.83 41.05 40.57 40.26 40.11 40.05 39.90 39.54 39.17 38.81 38.32 37.93 37.54 37.28 37.03 36.82 36.72 36.71 36.77 36.85 36.82 36.77 36.33 36.05 35.85 35.88 36.03 36.13 36.09 35.81 35.66 35.66 35.83 35.89 35.80 35.56 35.54 35.65 35.60 35.31 35.04 35.22 35.01
44.09 44.05 44.05 43.96 43.66 43.23 42.85 42.59 42.82 42.78 42.56 42.18 41.84 41.81 41.77 41.90 41.99 42.29 42.33 42.02 41.85 41.68 41.33 40.86 40.86 40.55 40.35 40.50 40.40 40.10 39.73 39.36 39.12 38.79 38.43 38.07 37.50 37.12 36.82 36.50 36.47 36.42 36.37 36.43 36.32 36.27 36.23 36.18 35.94 35.79 35.72 35.75 35.81 35.64 35.49 35.21 34.93 34.95 35.05 35.12 35.22 35.25 35.53 36.47 36.15 35.37 34.77 35.06 35.30
43.83 43.83 43.83 43.71 43.28 42.77 42.30 41.83 41.92 41.88 41.67 41.25 41.18 41.14 41.18 41.40 41.36 41.62 41.83 41.74 41.36 41.03 40.78 40.36 40.14 39.82 39.50 39.40 39.67 39.80 39.62 38.84 38.51 38.06 37.64 37.23 36.76 36.38 36.12 35.92 36.04 35.99 35.98 36.07 36.09 36.07 36.07 35.96 35.82 35.73 35.64 35.63 35.62 35.50 35.27 34.98 34.87 34.82 34.78 34.86 34.86 34.93 35.09 35.65 35.43 34.96 34.63 34.75 35.40
43.62 43.62 43.49 43.28 42.77 42.27 41.76 41.46 41.16 41.00 40.84 40.60 40.48 40.35 40.39 40.52 40.65 40.75 40.80 40.75 40.93 40.69 40.33 39.95 39.44 39.13 38.95 39.13 39.08 39.44 39.48 38.38 37.81 37.41 37.04 36.54 36.20 35.82 35.67 35.47 35.42 35.40 35.37 35.58 35.83 35.98 35.95 35.92 35.85 35.81 35.63 35.52 35.37 35.24 35.23 35.18 35.11 35.02 34.98 35.00 34.90 34.90 34.82 34.73 34.68 34.65 34.63 34.56 34.88
43.28 43.19 43.07 42.82 42.23 41.65 41.10 40.80 40.55 40.22 39.98 39.75 39.31 39.22 39.39 39.61 39.71 39.77 39.91 40.09 40.35 40.11 39.66 39.42 39.05 38.84 38.75 38.80 38.67 38.74 38.64 37.93 37.09 36.61 36.32 35.94 35.65 35.33 35.16 34.94 34.75 34.60 34.62 34.89 35.30 35.49 35.60 35.52 35.49 35.37 35.30 35.33 35.29 35.24 35.20 35.16 35.13 35.16 35.08 35.01 35.03 34.97 34.90 34.74 34.62 34.55 34.48 34.38 34.24
42.85 42.77 42.61 42.16 41.45 40.82 40.19 39.90 39.65 39.24 38.84 38.47 38.20 38.11 38.15 38.38 38.41 38.34 38.40 38.79 39.14 39.00 38.77 38.57 38.41 38.32 38.20 38.16 38.00 37.79 37.61 37.58 36.80 36.35 36.08 35.80 35.51 35.16 34.82 34.50 34.03 33.74 33.64 33.80 34.19 34.62 34.89 34.86 34.68 34.61 34.64 34.82 34.81 34.86 34.89 34.80 34.71 34.70 34.72 34.88 35.05 35.03 34.92 34.82 34.59 34.49 34.29 34.23 34.03
42.31 42.15 41.74 41.12 40.38 39.67 39.18 38.76 38.49 38.08 37.72 37.38 37.24 37.11 37.02 37.00 36.80 36.63 36.63 36.94 37.21 37.28 37.22 37.24 37.16 37.01 36.85 36.68 36.73 36.80 36.94 37.20 36.75 36.62 36.44 36.04 35.60 35.44 35.20 34.73 34.12 33.71 33.47 33.36 33.60 34.05 34.56 34.85 34.65 34.54 34.50 34.38 34.52 34.75 35.01 35.00 34.60 34.32 34.38 34.52 34.47 34.42 34.28 34.31 34.24 34.14 34.05 34.03 33.92
41.57 41.16 40.55 39.89 39.28 38.95 38.55 37.81 37.29 36.93 36.68 36.50 36.33 36.16 36.08 35.80 35.62 35.44 35.36 35.38 35.69 35.51 35.20 35.20 35.05 34.90 34.71 34.46 34.84 35.37 35.93 36.19 36.35 36.33 36.19 35.79 35.44 35.29 35.26 34.90 34.48 34.23 33.93 33.67 34.11 34.39 34.71 34.98 35.12 35.08 34.99 34.66 34.86 35.12 35.45 35.29 34.90 34.38 33.85 33.80 33.35 33.09 32.93 33.13 33.34 33.50 33.64 33.66 33.73
40.50 39.98 39.42 38.95 37.91 37.42 37.11 36.59 36.27 36.02 35.81 35.60 35.44 35.29 35.16 34.92 34.75 34.56 34.42 34.21 34.04 33.86 33.64 33.60 33.51 33.32 33.14 33.00 33.22 33.60 34.14 34.52 34.73 34.69 34.57 34.29 34.37 34.31 34.24 34.12 34.02 33.91 34.04 34.53 35.82 36.55 36.63 36.15 35.60 35.43 35.43 35.45 35.57 35.49 35.11 34.88 34.44 33.91 33.42 33.05 32.56 32.14 31.92 31.94 32.18 32.35 32.64 33.02 33.18
39.04 38.48 37.93 37.26 36.53 36.17 35.94 35.73 35.49 35.17 34.96 34.73 34.59 34.54 34.39 34.15 34.00 33.81 33.65 33.32 33.06 32.92 32.88 32.93 32.75 32.44 32.18 32.11 32.05 32.24 32.53 32.86 33.03 33.01 32.76 32.51 32.57 32.51 32.47 32.52 32.99 33.58 34.62 36.65 39.08 39.98 39.79 39.07 37.80 36.53 35.46 35.02 35.06 34.89 34.81 35.24 34.45 33.71 33.22 32.96 32.90 32.38 31.88 31.67 31.69 31.61 31.56 31.73 31.93
37.56 36.93 36.30 35.80 35.53 35.33 35.09 34.85 34.65 34.37 34.02 33.88 33.77 33.74 33.63 33.43 33.39 33.22 32.95 32.82 32.62 32.53 32.47 32.48 32.38 32.70 32.65 31.57 31.38 31.42 31.49 31.61 31.91 31.96 31.80 31.56 31.66 31.91 32.01 31.94 32.26 33.01 34.79 38.03 39.31 39.82 39.98 40.34 40.04 38.80 36.78 34.64 34.41 34.38 34.39 34.11 34.41 34.11 33.59 33.10 33.22 32.84 32.21 31.80 31.61 31.35 31.02 30.41 30.44
36.15 35.60 35.26 35.13 34.97 34.66 34.45 34.26 33.99 33.67 33.36 33.19 33.04 33.00 32.92 33.00 33.15 32.90 32.54 32.51 32.33 32.08 31.92 31.91 32.37 33.53 33.61 31.19 31.15 31.13 31.22 31.24 31.28 31.35 31.31 31.15 31.34 31.81 32.22 32.23 32.45 33.21 35.03 38.06 38.80 39.28 39.59 40.07 40.31 39.91 38.42 35.62 34.84 34.71 34.50 33.84 33.87 33.97 34.00 33.34 33.03 32.72 32.36 32.05 31.80 31.59 31.10 29.94 29.67
35.14 34.84 34.62 34.56 34.37 34.18 33.98 33.79 33.52 33.18 32.94 32.77 32.64 32.59 32.55 32.51 32.53 32.45 32.33 32.18 31.92 31.64 31.36 31.33 31.97 32.40 32.22 31.12 30.89 30.87 30.95 31.08 31.05 31.05 31.08 31.08 31.31 31.75 32.25 32.73 32.89 34.46 36.73 38.90 38.85 39.04 39.47 39.87 40.15 40.18 39.64 37.89 35.18 34.29 34.14 33.76 33.88 33.56 33.13 33.15 32.75 32.48 32.16 31.57 31.01 30.59 30.14 29.55 29.29
34.49 34.44 34.31 34.19 33.99 33.76 33.57 33.42 33.13 32.94 32.74 32.54 32.48 32.44 32.35 32.27 32.21 32.14 32.14 32.02 31.63 31.28 31.06 31.09 31.74 31.62 31.31 31.12 30.83 30.84 30.94 30.95 30.91 30.98 31.09 31.15 31.16 31.43 32.10 33.01 33.75 35.71 37.92 39.45 39.01 39.07 39.30 39.62 39.89 40.17 40.16 39.59 36.38 34.31 33.31 33.26 33.23 33.04 32.77 32.52 32.15 31.82 31.42 30.80 30.20 29.82 29.63 29.36 29.23
34.26 34.24 34.21 33.89 33.69 33.49 33.32 33.10 32.96 32.84 32.72 32.83 32.55 32.33 32.16 32.09 31.94 31.96 31.97 31.86 31.47 31.36 31.31 31.29 31.42 31.24 31.05 31.04 30.94 30.86 30.82 30.86 30.97 30.95 30.86 30.72 30.85 31.21 32.11 33.87 33.94 35.69 37.95 39.61 39.35 39.33 39.36 39.48 39.64 39.80 39.97 39.92 37.57 34.96 32.99 32.59 32.20 32.19 32.32 32.08 31.81 31.55 31.10 30.61 30.22 29.80 29.48 29.24 29.14
34.09 34.03 33.92 33.63 33.43 33.20 33.01 32.90 32.86 32.77 32.78 32.90 32.49 32.19 32.05 31.91 31.76 31.59 31.52 31.54 31.79 32.30 32.56 31.78 31.29 31.09 31.06 31.25 31.09 30.95 30.87 30.96 31.01 30.84 30.67 30.51 32.27 32.70 32.59 32.53 33.32 35.57 38.09 39.84 39.50 39.33 39.35 39.42 39.46 39.55 39.67 39.67 37.80 35.00 32.73 32.25 31.89 31.66 31.49 31.44 31.58 31.44 31.10 30.70 30.23 29.89 29.65 29.38 29.11
33.73 33.66 33.59 33.41 33.13 33.00 33.03 32.93 32.90 32.80 32.64 32.41 32.15 31.94 31.79 31.65 31.55 31.51 31.53 31.82 32.11 32.25 32.14 31.57 31.14 30.96 31.04 31.06 30.99 30.93 30.91 31.06 30.99 30.92 30.85 30.81 31.20 31.46 31.72 32.09 32.47 35.01 38.03 39.79 39.38 39.25 39.23 39.29 39.25 39.28 39.33 39.30 37.82 35.11 32.64 32.14 31.90 31.66 31.48 31.41 31.34 31.25 31.09 30.68 30.16 29.99 29.96 29.65 29.34
33.40 33.36 33.28 33.14 33.03 33.00 32.96 32.95 32.87 32.64 32.49 32.19 31.92 31.74 31.63 31.62 31.47 31.41 31.50 31.82 31.65 31.36 31.02 30.98 30.83 30.81 30.75 30.73 30.74 30.76 30.89 31.08 31.35 31.98 32.44 32.02 31.61 31.49 31.75 32.22 32.02 35.16 38.81 39.67 39.30 39.12 39.10 39.12 39.07 38.99 38.96 39.06 37.24 34.64 32.38 31.85 31.74 31.51 31.33 31.20 31.20 31.18 31.07 30.89 30.46 30.19 30.08 29.91 29.72
33.18 33.19 33.05 33.05 33.00 32.95 32.77 32.67 32.52 32.33 32.08 31.80 31.60 31.51 31.45 31.32 31.10 31.02 31.15 31.45 31.09 30.92 30.78 30.76 30.66 30.52 30.48 30.43 30.40 30.71 31.23 32.06 31.56 31.39 31.45 31.43 31.33 31.48 31.42 30.82 31.36 35.42 39.29 39.42 39.10 38.96 38.90 38.92 38.79 38.67 38.60 38.61 36.13 33.50 31.54 31.20 31.18 31.04 30.92 30.84 30.93 31.00 31.07 30.99 30.76 30.57 30.39 30.15 29.97
33.18 33.14 33.05 32.91 32.83 32.65 32.31 31.99 31.79 31.71 31.61 31.50 31.31 31.24 31.04 30.73 30.51 30.51 30.89 31.81 31.56 30.90 30.32 30.42 30.35 30.25 30.19 30.19 30.26 30.71 31.16 31.37 30.71 30.72 30.98 31.13 31.02 31.28 31.27 30.69 31.88 35.68 38.90 39.18 38.86 38.73 38.64 38.58 38.56 38.44 38.26 37.77 34.87 32.40 30.83 30.53 30.53 30.50 30.45 30.44 30.51 30.57 30.62 30.58 30.52 30.52 30.49 30.35 30.33
33.35 33.23 33.04 32.70 32.37 32.02 31.63 31.33 31.23 31.17 31.21 31.12 31.08 30.82 30.51 30.15 30.13 30.49 31.31 32.49 31.57 30.57 29.99 30.12 30.19 30.15 30.08 30.03 30.14 30.98 31.28 30.05 30.21 30.41 30.80 31.18 30.83 30.52 30.35 30.31 31.54 34.92 38.06 38.92 38.63 38.47 38.37 38.24 38.22 38.21 37.74 36.07 33.21 31.33 30.37 29.94 29.76 29.68 29.62 29.52 29.69 29.90 29.93 29.86 29.99 30.11 30.20 30.22 30.13
33.40 33.28 32.90 32.34 31.84 31.38 31.07 30.90 30.87 30.86 30.86 30.85 30.69 30.46 30.16 29.99 30.06 30.53 31.21 31.95 30.62 30.10 30.02 30.20 30.19 30.22 30.18 30.28 30.37 30.93 31.32 30.93 30.55 30.55 30.93 31.68 30.94 30.28 29.97 29.96 30.08 32.89 36.20 38.11 38.15 38.17 38.04 38.02 38.01 37.93 36.86 34.14 31.29 29.95 29.52 29.16 28.88 28.66 28.61 28.60 28.66 28.78 28.90 28.92 29.20 29.40 29.57 29.62 30.17
33.18 33.06 32.65 31.98 31.42 30.95 30.74 30.65 30.59 30.63 30.65 30.79 30.53 30.42 30.32 30.26 30.19 30.62 31.42 32.33 30.82 30.32 30.37 30.39 30.39 30.40 30.60 30.97 31.11 31.19 31.19 31.09 31.22 30.76 30.35 30.47 30.26 29.93 29.65 29.45 29.37 31.31 34.18 37.03 37.50 37.65 37.67 37.77 37.84 37.63 36.35 32.86 30.36 29.31 28.97 28.62 28.13 27.95 27.79 27.75 27.76 27.79 27.88 28.04 28.32 28.59 28.94 29.64 32.58
32.85 32.62 32.26 31.68 31.14 30.81 30.65 30.57 30.60 30.79 30.94 31.10 31.03 30.92 30.80 30.59 30.43 30.98 31.74 32.36 31.15 30.81 30.91 30.77 30.88 31.17 31.51 32.10 31.25 30.73 30.59 30.73 31.35 31.26 30.53 29.31 29.81 30.75 30.87 29.36 29.20 30.63 33.14 36.21 36.91 37.19 37.34 37.55 37.77 37.74 36.80 34.04 30.60 29.21 28.85 28.35 27.81 27.49 27.31 27.24 27.20 27.18 27.29 27.45 27.75 28.04 28.50 29.36 34.79
32.53 32.37 32.08 31.56 31.29 31.14 31.19 31.32 31.61 31.86 31.99 32.00 31.83 31.53 31.24 31.19 31.48 31.88 32.13 31.95 31.40 31.34 31.42 31.32 31.46 31.67 32.24 33.07 31.32 30.28 29.87 29.89 30.14 30.62 30.79 30.08 30.81 32.67 33.33 30.45 29.50 30.38 32.60 35.37 36.37 36.90 37.13 37.40 37.66 37.81 36.94 33.96 30.53 29.16 28.85 28.28 27.66 27.32 27.01 26.91 26.84 26.83 26.90 27.00 27.33 27.66 27.96 28.22 32.62
32.55 32.50 32.43 32.40 32.22 32.18 32.34 32.59 32.77 32.79 32.58 32.28 32.06 31.90 32.00 32.29 32.21 32.03 31.86 31.59 31.53 31.44 31.39 31.22 31.35 31.74 32.23 32.96 31.15 30.07 29.46 29.45 29.65 29.81 30.26 31.06 31.39 33.05 33.74 31.22 30.09 30.12 31.45 33.95 35.74 36.67 36.97 37.28 37.59 37.71 36.95 34.09 30.56 29.21 28.79 28.27 27.71 27.24 26.80 26.59 26.62 26.59 26.63 26.61 26.84 27.08 27.33 27.37 28.39
MSLP
1017.82 1018.06 1018.26 1018.50 1018.78 1018.98 1019.22 1019.42 1019.54 1019.74 1019.94 1020.18 1020.38 1020.58 1020.78 1020.94 1021.18 1021.34 1021.50 1021.62 1021.78 1021.98 1022.14 1022.26 1022.38 1022.54 1022.66 1022.82 1023.02 1023.18 1023.34 1023.42 1023.50 1023.62 1023.78 1023.94 1024.10 1024.22 1024.34 1024.50 1024.62 1024.70 1024.78 1024.82 1024.82 1024.86 1024.90 1024.90 1024.98 1025.06 1025.14 1025.18 1025.26 1025.34 1025.34 1025.34 1025.38 1025.42 1025.50 1025.54 1025.62 1025.66 1025.74 1025.82 1025.86 1025.90 1025.86 1025.86 1025.78
1017.70 1017.90 1018.06 1018.34 1018.58 1018.82 1019.06 1019.26 1019.46 1019.62 1019.78 1019.98 1020.14 1020.34 1020.50 1020.74 1020.94 1021.18 1021.34 1021.50 1021.62 1021.78 1021.90 1022.10 1022.22 1022.38 1022.58 1022.70 1022.90 1023.06 1023.22 1023.34 1023.50 1023.62 1023.78 1023.90 1024.06 1024.22 1024.34 1024.50 1024.58 1024.66 1024.74 1024.78 1024.82 1024.90 1024.90 1024.94 1025.02 1025.06 1025.14 1025.22 1025.26 1025.34 1025.34 1025.34 1025.34 1025.38 1025.50 1025.54 1025.62 1025.62 1025.70 1025.78 1025.86 1025.90 1025.90 1025.90 1025.86
1017.50 1017.74 1017.94 1018.22 1018.46 1018.74 1018.98 1019.18 1019.38 1019.54 1019.70 1019.86 1020.02 1020.18 1020.34 1020.58 1020.78 1021.02 1021.18 1021.34 1021.46 1021.62 1021.78 1022.02 1022.18 1022.34 1022.50 1022.62 1022.78 1022.94 1023.10 1023.26 1023.42 1023.58 1023.78 1023.90 1024.06 1024.14 1024.30 1024.42 1024.58 1024.62 1024.74 1024.78 1024.82 1024.86 1024.90 1024.94 1024.98 1025.06 1025.14 1025.22 1025.30 1025.34 1025.38 1025.34 1025.34 1025.34 1025.46 1025.50 1025.54 1025.58 1025.66 1025.78 1025.82 1025.90 1025.90 1025.94 1025.94
1017.38 1017.62 1017.82 1018.06 1018.34 1018.54 1018.78 1018.98 1019.18 1019.38 1019.58 1019.74 1019.90 1020.06 1020.26 1020.50 1020.66 1020.86 1021.06 1021.18 1021.38 1021.54 1021.74 1021.90 1022.10 1022.26 1022.38 1022.54 1022.74 1022.90 1023.02 1023.18 1023.34 1023.50 1023.70 1023.86 1023.98 1024.14 1024.26 1024.38 1024.50 1024.66 1024.74 1024.78 1024.86 1024.90 1024.90 1024.94 1024.98 1025.06 1025.14 1025.22 1025.34 1025.38 1025.38 1025.34 1025.34 1025.34 1025.38 1025.46 1025.50 1025.54 1025.62 1025.74 1025.78 1025.82 1025.90 1025.98 1026.02
1017.30 1017.46 1017.62 1017.86 1018.06 1018.30 1018.50 1018.74 1018.98 1019.22 1019.46 1019.62 1019.82 1020.06 1020.26 1020.42 1020.62 1020.78 1021.02 1021.22 1021.34 1021.50 1021.62 1021.78 1022.02 1022.22 1022.34 1022.50 1022.62 1022.82 1022.94 1023.06 1023.18 1023.42 1023.62 1023.78 1023.94 1024.06 1024.22 1024.34 1024.50 1024.62 1024.74 1024.82 1024.86 1024.90 1024.94 1024.98 1025.02 1025.10 1025.18 1025.26 1025.34 1025.38 1025.42 1025.42 1025.42 1025.42 1025.46 1025.42 1025.42 1025.50 1025.58 1025.66 1025.74 1025.78 1025.86 1025.94 1025.98
1017.18 1017.34 1017.50 1017.74 1017.94 1018.18 1018.38 1018.62 1018.86 1019.06 1019.30 1019.50 1019.78 1020.02 1020.22 1020.42 1020.62 1020.78 1021.02 1021.22 1021.34 1021.46 1021.58 1021.74 1021.94 1022.14 1022.30 1022.46 1022.62 1022.78 1022.90 1023.02 1023.14 1023.34 1023.50 1023.74 1023.90 1024.06 1024.18 1024.34 1024.46 1024.58 1024.70 1024.78 1024.86 1024.90 1024.98 1025.06 1025.06 1025.10 1025.18 1025.26 1025.34 1025.42 1025.46 1025.46 1025.50 1025.50 1025.50 1025.50 1025.50 1025.50 1025.54 1025.66 1025.70 1025.74 1025.82 1025.90 1026.02
1017.06 1017.26 1017.50 1017.66 1017.86 1018.10 1018.34 1018.58 1018.78 1018.98 1019.18 1019.46 1019.70 1019.94 1020.18 1020.34 1020.54 1020.78 1020.90 1021.10 1021.30 1021.46 1021.58 1021.74 1021.90 1022.10 1022.30 1022.46 1022.62 1022.74 1022.82 1022.94 1023.06 1023.18 1023.42 1023.62 1023.86 1024.02 1024.14 1024.26 1024.34 1024.50 1024.62 1024.78 1024.90 1024.94 1025.02 1025.06 1025.10 1025.18 1025.22 1025.26 1025.38 1025.50 1025.50 1025.54 1025.58 1025.62 1025.62 1025.62 1025.58 1025.54 1025.58 1025.62 1025.66 1025.70 1025.78 1025.90 1025.98
1017.02 1017.18 1017.38 1017.58 1017.78 1018.02 1018.22 1018.50 1018.70 1018.94 1019.18 1019.42 1019.62 1019.82 1020.06 1020.22 1020.46 1020.62 1020.86 1021.06 1021.26 1021.42 1021.54 1021.70 1021.90 1022.06 1022.22 1022.42 1022.58 1022.70 1022.82 1022.90 1022.98 1023.10 1023.30 1023.50 1023.74 1023.90 1024.06 1024.22 1024.30 1024.46 1024.58 1024.66 1024.78 1024.90 1024.98 1025.06 1025.10 1025.18 1025.30 1025.34 1025.46 1025.50 1025.58 1025.62 1025.62 1025.70 1025.74 1025.74 1025.66 1025.62 1025.62 1025.62 1025.62 1025.66 1025.74 1025.86 1025.90
1017.06 1017.22 1017.38 1017.54 1017.74 1017.94 1018.18 1018.38 1018.62 1018.82 1019.06 1019.34 1019.54 1019.70 1019.90 1020.10 1020.34 1020.54 1020.78 1020.98 1021.18 1021.30 1021.50 1021.66 1021.82 1022.02 1022.22 1022.38 1022.54 1022.66 1022.78 1022.86 1022.90 1023.02 1023.18 1023.34 1023.58 1023.78 1023.98 1024.14 1024.26 1024.42 1024.50 1024.62 1024.74 1024.86 1024.94 1025.06 1025.10 1025.18 1025.30 1025.38 1025.50 1025.58 1025.62 1025.62 1025.74 1025.82 1025.82 1025.82 1025.78 1025.74 1025.66 1025.62 1025.62 1025.66 1025.78 1025.82 1025.90
1017.10 1017.26 1017.42 1017.62 1017.78 1017.94 1018.14 1018.34 1018.58 1018.78 1018.98 1019.26 1019.50 1019.62 1019.82 1020.02 1020.22 1020.46 1020.62 1020.82 1021.02 1021.22 1021.46 1021.62 1021.78 1021.98 1022.18 1022.34 1022.50 1022.62 1022.74 1022.78 1022.86 1022.90 1023.06 1023.22 1023.46 1023.66 1023.86 1024.06 1024.22 1024.34 1024.50 1024.58 1024.66 1024.78 1024.90 1025.02 1025.14 1025.22 1025.34 1025.38 1025.50 1025.62 1025.66 1025.70 1025.82 1025.90 1025.90 1025.86 1025.86 1025.82 1025.78 1025.78 1025.74 1025.78 1025.82 1025.86 1025.90
1017.06 1017.18 1017.38 1017.58 1017.78 1017.94 1018.14 1018.38 1018.62 1018.78 1018.98 1019.22 1019.46 1019.62 1019.78 1019.98 1020.18 1020.34 1020.50 1020.74 1021.02 1021.22 1021.42 1021.54 1021.74 1021.90 1022.10 1022.30 1022.46 1022.58 1022.66 1022.78 1022.82 1022.90 1022.98 1023.14 1023.34 1023.50 1023.74 1023.90 1024.06 1024.26 1024.42 1024.54 1024.62 1024.74 1024.86 1024.98 1025.14 1025.26 1025.34 1025.42 1025.50 1025.62 1025.70 1025.78 1025.86 1025.90 1025.94 1025.94 1025.94 1025.94 1025.94 1025.90 1025.90 1025.86 1025.90 1025.94 1025.98
1017.02 1017.18 1017.38 1017.54 1017.78 1017.98 1018.18 1018.42 1018.66 1018.86 1019.02 1019.22 1019.42 1019.62 1019.78 1019.98 1020.14 1020.30 1020.50 1020.78 1020.98 1021.18 1021.34 1021.50 1021.66 1021.86 1022.06 1022.22 1022.38 1022.50 1022.62 1022.78 1022.82 1022.90 1022.94 1023.06 1023.18 1023.42 1023.62 1023.78 1023.98 1024.18 1024.34 1024.50 1024.58 1024.66 1024.78 1024.94 1025.14 1025.30 1025.42 1025.50 1025.58 1025.62 1025.74 1025.82 1025.90 1025.98 1026.02 1026.02 1026.06 1026.06 1026.06 1026.02 1025.98 1025.98 1026.02 1026.02 1026.06
1016.98 1017.22 1017.42 1017.62 1017.78 1018.02 1018.22 1018.42 1018.66 1018.86 1019.06 1019.22 1019.42 1019.58 1019.78 1019.94 1020.10 1020.30 1020.50 1020.74 1020.90 1021.14 1021.34 1021.50 1021.62 1021.82 1022.06 1022.22 1022.38 1022.50 1022.62 1022.74 1022.78 1022.86 1022.94 1023.06 1023.18 1023.34 1023.50 1023.74 1023.90 1024.06 1024.26 1024.42 1024.50 1024.62 1024.78 1024.90 1025.06 1025.22 1025.38 1025.50 1025.58 1025.62 1025.74 1025.82 1025.90 1025.98 1026.06 1026.10 1026.14 1026.14 1026.14 1026.06 1026.06 1026.06 1026.06 1026.06 1026.10
1016.98 1017.22 1017.46 1017.62 1017.82 1018.02 1018.26 1018.50 1018.66 1018.86 1019.06 1019.22 1019.38 1019.54 1019.74 1019.94 1020.10 1020.30 1020.50 1020.70 1020.90 1021.10 1021.30 1021.50 1021.62 1021.82 1022.02 1022.22 1022.34 1022.50 1022.62 1022.74 1022.82 1022.90 1022.98 1023.06 1023.14 1023.26 1023.42 1023.62 1023.82 1024.02 1024.22 1024.34 1024.50 1024.62 1024.74 1024.86 1025.02 1025.18 1025.34 1025.46 1025.58 1025.62 1025.70 1025.78 1025.90 1025.98 1026.06 1026.14 1026.18 1026.22 1026.22 1026.14 1026.10 1026.06 1026.06 1026.06 1026.10
1016.98 1017.18 1017.42 1017.62 1017.82 1018.06 1018.26 1018.50 1018.66 1018.86 1019.06 1019.22 1019.38 1019.54 1019.74 1019.94 1020.10 1020.26 1020.46 1020.70 1020.90 1021.06 1021.26 1021.50 1021.66 1021.86 1021.98 1022.18 1022.34 1022.50 1022.66 1022.78 1022.90 1023.02 1023.10 1023.14 1023.18 1023.30 1023.42 1023.62 1023.78 1023.90 1024.10 1024.30 1024.46 1024.58 1024.66 1024.78 1024.90 1025.06 1025.18 1025.38 1025.50 1025.58 1025.62 1025.74 1025.82 1025.90 1026.02 1026.06 1026.14 1026.18 1026.18 1026.18 1026.14 1026.10 1026.06 1026.10 1026.14
1016.90 1017.14 1017.34 1017.62 1017.78 1018.02 1018.22 1018.46 1018.62 1018.82 1019.06 1019.18 1019.34 1019.50 1019.70 1019.90 1020.06 1020.26 1020.46 1020.66 1020.86 1021.06 1021.22 1021.46 1021.66 1021.86 1022.02 1022.18 1022.34 1022.54 1022.70 1022.86 1022.98 1023.10 1023.18 1023.30 1023.34 1023.42 1023.50 1023.62 1023.78 1023.90 1024.10 1024.30 1024.46 1024.58 1024.66 1024.74 1024.82 1024.94 1025.10 1025.26 1025.42 1025.50 1025.62 1025.66 1025.78 1025.86 1025.90 1025.94 1026.06 1026.10 1026.10 1026.10 1026.10 1026.10 1026.10 1026.06 1026.14
1016.82 1017.06 1017.30 1017.54 1017.78 1017.98 1018.18 1018.38 1018.58 1018.78 1018.98 1019.18 1019.34 1019.50 1019.70 1019.86 1020.06 1020.26 1020.42 1020.62 1020.82 1021.06 1021.26 1021.46 1021.62 1021.86 1022.06 1022.22 1022.38 1022.54 1022.70 1022.90 1023.06 1023.18 1023.30 1023.38 1023.50 1023.50 1023.62 1023.74 1023.82 1023.94 1024.10 1024.30 1024.50 1024.62 1024.66 1024.74 1024.78 1024.90 1025.06 1025.18 1025.34 1025.46 1025.54 1025.62 1025.70 1025.78 1025.82 1025.90 1025.94 1026.02 1026.06 1026.06 1026.06 1026.10 1026.10 1026.06 1026.10
1016.74 1016.98 1017.18 1017.42 1017.66 1017.90 1018.10 1018.34 1018.54 1018.78 1018.94 1019.14 1019.34 1019.50 1019.70 1019.86 1020.06 1020.22 1020.42 1020.62 1020.78 1021.02 1021.22 1021.46 1021.62 1021.82 1022.02 1022.22 1022.38 1022.54 1022.70 1022.90 1023.06 1023.22 1023.34 1023.50 1023.58 1023.62 1023.74 1023.82 1023.90 1024.02 1024.18 1024.30 1024.50 1024.62 1024.70 1024.78 1024.82 1024.90 1025.02 1025.14 1025.26 1025.38 1025.50 1025.58 1025.62 1025.70 1025.78 1025.82 1025.86 1025.90 1025.94 1025.98 1026.02 1026.06 1026.06 1026.10 1026.10
1016.62 1016.86 1017.10 1017.34 1017.58 1017.78 1018.02 1018.26 1018.50 1018.74 1018.90 1019.10 1019.34 1019.50 1019.70 1019.86 1020.06 1020.22 1020.46 1020.62 1020.78 1020.94 1021.18 1021.42 1021.66 1021.86 1022.02 1022.22 1022.38 1022.54 1022.66 1022.86 1023.06 1023.18 1023.34 1023.50 1023.62 1023.78 1023.86 1023.94 1024.06 1024.18 1024.26 1024.34 1024.50 1024.62 1024.66 1024.78 1024.82 1024.94 1025.06 1025.14 1025.26 1025.34 1025.46 1025.54 1025.62 1025.62 1025.70 1025.78 1025.78 1025.82 1025.86 1025.90 1025.90 1025.98 1026.02 1026.06 1026.10
1016.50 1016.78 1017.02 1017.22 1017.50 1017.70 1017.94 1018.22 1018.42 1018.66 1018.90 1019.10 1019.34 1019.50 1019.74 1019.90 1020.06 1020.22 1020.46 1020.62 1020.78 1020.94 1021.18 1021.42 1021.62 1021.86 1022.06 1022.22 1022.38 1022.54 1022.66 1022.78 1022.98 1023.18 1023.34 1023.50 1023.66 1023.82 1023.94 1024.06 1024.18 1024.30 1024.38 1024.46 1024.54 1024.62 1024.74 1024.78 1024.90 1024.98 1025.06 1025.18 1025.30 1025.34 1025.46 1025.50 1025.58 1025.62 1025.66 1025.74 1025.78 1025.78 1025.82 1025.82 1025.86 1025.90 1025.94 1026.02 1026.06
1016.42 1016.66 1016.90 1017.14 1017.38 1017.66 1017.90 1018.14 1018.34 1018.62 1018.86 1019.10 1019.34 1019.54 1019.74 1019.90 1020.06 1020.26 1020.46 1020.62 1020.78 1020.98 1021.18 1021.42 1021.62 1021.86 1022.06 1022.22 1022.38 1022.54 1022.66 1022.78 1022.98 1023.14 1023.30 1023.50 1023.66 1023.82 1023.94 1024.10 1024.26 1024.38 1024.50 1024.54 1024.62 1024.70 1024.78 1024.86 1024.94 1025.02 1025.10 1025.18 1025.26 1025.34 1025.46 1025.54 1025.62 1025.62 1025.66 1025.74 1025.78 1025.78 1025.74 1025.78 1025.78 1025.82 1025.90 1025.94 1025.98
1016.34 1016.62 1016.86 1017.10 1017.34 1017.62 1017.90 1018.14 1018.38 1018.62 1018.90 1019.14 1019.34 1019.54 1019.78 1019.94 1020.18 1020.34 1020.50 1020.66 1020.86 1021.06 1021.26 1021.50 1021.66 1021.86 1022.06 1022.22 1022.34 1022.50 1022.66 1022.82 1022.98 1023.14 1023.30 1023.50 1023.66 1023.82 1023.94 1024.10 1024.26 1024.42 1024.50 1024.62 1024.66 1024.78 1024.82 1024.90 1024.98 1025.06 1025.10 1025.18 1025.26 1025.34 1025.38 1025.50 1025.58 1025.62 1025.70 1025.78 1025.78 1025.78 1025.74 1025.78 1025.78 1025.78 1025.86 1025.90 1025.94
1016.30 1016.58 1016.86 1017.10 1017.34 1017.62 1017.90 1018.18 1018.46 1018.70 1018.94 1019.18 1019.42 1019.62 1019.82 1020.06 1020.22 1020.42 1020.62 1020.78 1020.94 1021.14 1021.34 1021.54 1021.74 1021.90 1022.06 1022.22 1022.34 1022.50 1022.66 1022.86 1023.06 1023.18 1023.34 1023.50 1023.66 1023.82 1023.94 1024.10 1024.22 1024.34 1024.50 1024.58 1024.62 1024.78 1024.86 1024.90 1024.98 1025.06 1025.06 1025.14 1025.22 1025.30 1025.34 1025.42 1025.54 1025.62 1025.74 1025.78 1025.78 1025.78 1025.78 1025.78 1025.78 1025.78 1025.82 1025.90 1025.90
1016.34 1016.62 1016.90 1017.14 1017.42 1017.70 1017.94 1018.22 1018.50 1018.78 1019.02 1019.26 1019.46 1019.66 1019.90 1020.10 1020.30 1020.50 1020.62 1020.82 1021.06 1021.26 1021.46 1021.62 1021.82 1021.98 1022.14 1022.26 1022.42 1022.58 1022.78 1022.94 1023.14 1023.34 1023.46 1023.62 1023.74 1023.86 1024.02 1024.14 1024.26 1024.34 1024.50 1024.54 1024.62 1024.70 1024.78 1024.90 1024.98 1025.02 1025.06 1025.10 1025.18 1025.22 1025.30 1025.34 1025.46 1025.58 1025.66 1025.74 1025.78 1025.82 1025.78 1025.78 1025.78 1025.82 1025.86 1025.86 1025.86
1016.34 1016.62 1016.90 1017.18 1017.50 1017.78 1018.02 1018.30 1018.58 1018.82 1019.06 1019.30 1019.50 1019.74 1019.94 1020.14 1020.34 1020.54 1020.78 1020.94 1021.14 1021.34 1021.50 1021.70 1021.90 1022.06 1022.22 1022.34 1022.54 1022.70 1022.86 1023.02 1023.18 1023.42 1023.62 1023.74 1023.86 1023.94 1024.06 1024.22 1024.26 1024.34 1024.50 1024.50 1024.58 1024.62 1024.70 1024.78 1024.90 1024.94 1025.02 1025.06 1025.10 1025.18 1025.22 1025.30 1025.38 1025.46 1025.58 1025.66 1025.74 1025.78 1025.82 1025.82 1025.82 1025.86 1025.90 1025.86 1025.82
1016.38 1016.70 1017.02 1017.30 1017.54 1017.82 1018.10 1018.34 1018.62 1018.86 1019.10 1019.34 1019.58 1019.78 1020.02 1020.22 1020.42 1020.62 1020.78 1021.06 1021.22 1021.38 1021.54 1021.74 1021.90 1022.06 1022.26 1022.46 1022.62 1022.78 1022.94 1023.10 1023.30 1023.50 1023.66 1023.82 1023.94 1024.06 1024.14 1024.22 1024.30 1024.38 1024.46 1024.50 1024.54 1024.62 1024.70 1024.78 1024.78 1024.90 1024.98 1025.06 1025.10 1025.18 1025.18 1025.22 1025.30 1025.34 1025.46 1025.50 1025.62 1025.70 1025.78 1025.90 1025.90 1025.90 1025.90 1025.86 1025.78
1016.50 1016.82 1017.06 1017.34 1017.62 1017.90 1018.18 1018.42 1018.62 1018.90 1019.18 1019.42 1019.62 1019.86 1020.06 1020.26 1020.46 1020.62 1020.86 1021.10 1021.30 1021.46 1021.58 1021.78 1021.94 1022.10 1022.30 1022.50 1022.66 1022.90 1023.06 1023.22 1023.34 1023.50 1023.66 1023.82 1023.90 1024.06 1024.18 1024.26 1024.34 1024.38 1024.46 1024.50 1024.54 1024.62 1024.70 1024.78 1024.78 1024.86 1024.90 1025.06 1025.10 1025.18 1025.18 1025.22 1025.26 1025.30 1025.34 1025.42 1025.50 1025.62 1025.70 1025.82 1025.90 1025.90 1025.90 1025.86 1025.78
1016.62 1016.90 1017.14 1017.42 1017.70 1017.98 1018.22 1018.50 1018.74 1018.98 1019.22 1019.46 1019.66 1019.86 1020.06 1020.30 1020.50 1020.70 1020.90 1021.14 1021.34 1021.50 1021.66 1021.86 1021.98 1022.14 1022.34 1022.54 1022.78 1022.90 1023.10 1023.26 1023.38 1023.50 1023.62 1023.78 1023.90 1024.06 1024.14 1024.26 1024.30 1024.34 1024.46 1024.50 1024.58 1024.62 1024.70 1024.78 1024.78 1024.86 1024.90 1025.02 1025.10 1025.18 1025.18 1025.26 1025.30 1025.30 1025.30 1025.38 1025.46 1025.54 1025.62 1025.70 1025.78 1025.82 1025.86 1025.82 1025.78
1016.66 1016.94 1017.18 1017.50 1017.78 1018.06 1018.34 1018.58 1018.78 1019.02 1019.22 1019.50 1019.66 1019.86 1020.06 1020.34 1020.54 1020.78 1020.98 1021.18 1021.38 1021.58 1021.78 1021.90 1022.02 1022.18 1022.38 1022.62 1022.82 1022.98 1023.14 1023.30 1023.42 1023.50 1023.66 1023.82 1023.94 1024.06 1024.14 1024.22 1024.30 1024.34 1024.42 1024.50 1024.58 1024.62 1024.70 1024.78 1024.78 1024.86 1024.90 1024.98 1025.10 1025.18 1025.18 1025.22 1025.26 1025.26 1025.30 1025.34 1025.38 1025.46 1025.54 1025.62 1025.66 1025.74 1025.78 1025.78 1025.78
1016.78 1017.02 1017.30 1017.58 1017.86 1018.14 1018.42 1018.62 1018.82 1019.06 1019.26 1019.50 1019.70 1019.90 1020.14 1020.34 1020.62 1020.86 1021.06 1021.22 1021.46 1021.62 1021.78 1021.90 1022.06 1022.30 1022.50 1022.70 1022.86 1023.02 1023.18 1023.34 1023.46 1023.54 1023.70 1023.86 1023.98 1024.06 1024.14 1024.22 1024.26 1024.34 1024.38 1024.46 1024.58 1024.62 1024.74 1024.78 1024.82 1024.86 1024.90 1024.90 1025.06 1025.14 1025.18 1025.18 1025.22 1025.26 1025.30 1025.34 1025.34 1025.42 1025.46 1025.50 1025.58 1025.62 1025.66 1025.70 1025.70
1016.90 1017.10 1017.38 1017.62 1017.94 1018.22 1018.46 1018.66 1018.90 1019.06 1019.30 1019.54 1019.78 1019.94 1020.22 1020.46 1020.70 1020.90 1021.06 1021.26 1021.46 1021.62 1021.78 1021.90 1022.14 1022.34 1022.58 1022.74 1022.90 1023.06 1023.22 1023.38 1023.50 1023.62 1023.78 1023.90 1023.94 1024.06 1024.14 1024.22 1024.26 1024.34 1024.38 1024.46 1024.54 1024.62 1024.70 1024.78 1024.78 1024.86 1024.90 1024.90 1025.02 1025.06 1025.14 1025.18 1025.18 1025.26 1025.30 1025.34 1025.34 1025.34 1025.34 1025.42 1025.46 1025.50 1025.58 1025.62 1025.62
1017.02 1017.22 1017.50 1017.74 1018.02 1018.26 1018.50 1018.74 1018.94 1019.18 1019.34 1019.58 1019.78 1020.02 1020.26 1020.54 1020.74 1020.90 1021.10 1021.26 1021.46 1021.62 1021.82 1022.02 1022.22 1022.46 1022.62 1022.78 1022.94 1023.14 1023.30 1023.42 1023.54 1023.66 1023.78 1023.90 1023.98 1024.06 1024.14 1024.22 1024.26 1024.34 1024.38 1024.42 1024.50 1024.62 1024.70 1024.78 1024.78 1024.86 1024.90 1024.90 1024.98 1025.06 1025.10 1025.14 1025.18 1025.18 1025.22 1025.26 1025.26 1025.26 1025.30 1025.34 1025.34 1025.38 1025.46 1025.50 1025.50
1017.10 1017.34 1017.54 1017.82 1018.06 1018.34 1018.58 1018.78 1019.02 1019.22 1019.42 1019.62 1019.90 1020.10 1020.34 1020.58 1020.78 1021.02 1021.18 1021.34 1021.50 1021.70 1021.90 1022.10 1022.34 1022.50 1022.70 1022.86 1023.02 1023.18 1023.34 1023.46 1023.58 1023.66 1023.78 1023.90 1023.98 1024.06 1024.14 1024.22 1024.26 1024.34 1024.34 1024.38 1024.50 1024.58 1024.62 1024.74 1024.78 1024.78 1024.78 1024.78 1024.90 1025.02 1025.06 1025.10 1025.14 1025.14 1025.18 1025.18 1025.18 1025.14 1025.18 1025.18 1025.26 1025.30 1025.34 1025.34 1025.34
1017.22 1017.46 1017.66 1017.90 1018.14 1018.42 1018.66 1018.86 1019.06 1019.30 1019.50 1019.78 1020.02 1020.22 1020.46 1020.62 1020.90 1021.14 1021.30 1021.46 1021.62 1021.78 1021.94 1022.14 1022.30 1022.50 1022.66 1022.86 1022.98 1023.18 1023.34 1023.46 1023.54 1023.66 1023.78 1023.90 1023.98 1024.06 1024.18 1024.22 1024.26 1024.22 1024.26 1024.34 1024.46 1024.50 1024.58 1024.62 1024.70 1024.74 1024.74 1024.78 1024.86 1024.94 1025.06 1025.06 1025.10 1025.14 1025.18 1025.10 1025.10 1025.06 1025.06 1025.06 1025.10 1025.10 1025.14 1025.18 1025.18
1017.30 1017.50 1017.78 1018.02 1018.22 1018.50 1018.74 1018.98 1019.18 1019.42 1019.62 1019.90 1020.18 1020.38 1020.58 1020.78 1020.98 1021.18 1021.34 1021.46 1021.62 1021.86 1022.06 1022.22 1022.34 1022.50 1022.66 1022.82 1022.98 1023.14 1023.26 1023.42 1023.54 1023.66 1023.78 1023.86 1023.94 1024.06 1024.18 1024.22 1024.22 1024.22 1024.22 1024.26 1024.34 1024.46 1024.50 1024.58 1024.62 1024.66 1024.70 1024.78 1024.86 1024.90 1024.98 1025.02 1025.06 1025.10 1025.10 1025.06 1025.06 1025.02 1024.98 1024.94 1024.94 1024.94 1024.98 1024.98 1024.98
1017.38 1017.58 1017.82 1018.10 1018.34 1018.62 1018.82 1019.06 1019.34 1019.58 1019.78 1020.06 1020.30 1020.54 1020.74 1020.90 1021.06 1021.22 1021.38 1021.50 1021.70 1021.90 1022.10 1022.26 1022.42 1022.58 1022.74 1022.90 1023.02 1023.10 1023.22 1023.38 1023.50 1023.62 1023.70 1023.82 1023.90 1024.06 1024.18 1024.22 1024.22 1024.22 1024.18 1024.22 1024.30 1024.34 1024.42 1024.50 1024.54 1024.54 1024.62 1024.74 1024.82 1024.90 1024.94 1024.94 1025.02 1025.02 1025.02 1024.98 1024.98 1024.90 1024.86 1024.86 1024.86 1024.82 1024.82 1024.78 1024.78
1017.50 1017.70 1017.94 1018.22 1018.50 1018.74 1018.98 1019.18 1019.46 1019.70 1019.94 1020.18 1020.42 1020.62 1020.82 1020.98 1021.18 1021.34 1021.50 1021.58 1021.78 1022.02 1022.18 1022.30 1022.46 1022.62 1022.78 1022.90 1022.98 1023.10 1023.18 1023.30 1023.46 1023.62 1023.70 1023.78 1023.90 1024.02 1024.10 1024.22 1024.22 1024.22 1024.18 1024.14 1024.22 1024.22 1024.34 1024.38 1024.42 1024.50 1024.54 1024.66 1024.78 1024.82 1024.90 1024.90 1024.90 1024.90 1024.90 1024.90 1024.90 1024.82 1024.78 1024.74 1024.70 1024.66 1024.66 1024.66 1024.62
1017.62 1017.78 1018.06 1018.34 1018.62 1018.86 1019.10 1019.34 1019.54 1019.82 1020.06 1020.30 1020.50 1020.66 1020.82 1021.02 1021.22 1021.38 1021.54 1021.62 1021.82 1022.06 1022.22 1022.34 1022.50 1022.62 1022.78 1022.82 1022.94 1023.06 1023.18 1023.30 1023.42 1023.58 1023.70 1023.78 1023.90 1023.98 1024.06 1024.14 1024.22 1024.22 1024.18 1024.14 1024.14 1024.18 1024.22 1024.26 1024.34 1024.34 1024.46 1024.58 1024.70 1024.78 1024.78 1024.86 1024.86 1024.86 1024.82 1024.82 1024.78 1024.74 1024.66 1024.62 1024.58 1024.54 1024.54 1024.50 1024.42
1017.78 1017.94 1018.18 1018.42 1018.70 1018.98 1019.22 1019.46 1019.66 1019.90 1020.14 1020.34 1020.50 1020.74 1020.90 1021.06 1021.26 1021.46 1021.54 1021.62 1021.78 1022.02 1022.22 1022.34 1022.50 1022.62 1022.70 1022.78 1022.94 1023.10 1023.22 1023.34 1023.42 1023.54 1023.62 1023.78 1023.82 1023.90 1023.98 1024.06 1024.10 1024.14 1024.10 1024.06 1024.06 1024.10 1024.14 1024.18 1024.18 1024.22 1024.30 1024.50 1024.58 1024.66 1024.74 1024.78 1024.78 1024.78 1024.78 1024.74 1024.70 1024.66 1024.62 1024.50 1024.46 1024.46 1024.46 1024.34 1024.22
1017.90 1018.14 1018.34 1018.58 1018.82 1019.06 1019.30 1019.54 1019.78 1019.94 1020.14 1020.34 1020.54 1020.78 1020.94 1021.10 1021.26 1021.38 1021.50 1021.62 1021.78 1021.94 1022.10 1022.30 1022.46 1022.58 1022.66 1022.78 1022.98 1023.14 1023.30 1023.38 1023.46 1023.50 1023.58 1023.70 1023.74 1023.78 1023.82 1023.94 1024.02 1024.02 1024.02 1023.98 1023.98 1024.02 1024.02 1024.06 1024.06 1024.06 1024.18 1024.38 1024.46 1024.54 1024.62 1024.66 1024.70 1024.74 1024.74 1024.66 1024.62 1024.62 1024.54 1024.50 1024.38 1024.38 1024.34 1024.30 1024.22
1018.06 1018.26 1018.50 1018.70 1018.90 1019.14 1019.34 1019.62 1019.82 1020.02 1020.18 1020.38 1020.58 1020.78 1020.90 1021.06 1021.22 1021.38 1021.50 1021.66 1021.78 1021.94 1022.14 1022.30 1022.50 1022.62 1022.74 1022.82 1022.98 1023.14 1023.30 1023.42 1023.46 1023.50 1023.50 1023.58 1023.62 1023.66 1023.70 1023.78 1023.86 1023.90 1023.90 1023.90 1023.90 1023.90 1023.90 1023.90 1023.94 1023.90 1024.02 1024.22 1024.34 1024.38 1024.50 1024.58 1024.62 1024.62 1024.62 1024.58 1024.50 1024.50 1024.50 1024.46 1024.34 1024.34 1024.26 1024.26 1024.22
Wind_Speed
8 8 8 8 7 7 6 5 6 6 6 6 6 6 6 6 6 5 5 5 5 5 5 5 5 5 6 7 8 7 6 6 6 6 6 6 6 5 5 4 3 3 2 2 2 2 2 2 2 2 1 1 2 1 1 1 0 1 1 1 1 1 1 2 2 2 3 3 2
8 8 8 8 8 6 5 5 5 6 6 5 6 6 6 6 6 5 5 5 5 5 5 4 5 6 7 8 8 7 7 6 6 6 6 6 6 6 5 4 3 3 3 3 2 2 2 2 2 2 2 1 2 2 1 1 1 1 1 2 1 1 1 2 2 2 2 2 2
9 9 9 8 8 7 6 5 6 6 6 5 5 5 5 5 5 5 5 5 5 5 5 5 5 6 7 8 7 7 7 7 7 6 6 6 6 5 5 4 4 3 2 2 2 2 2 2 2 2 2 1 2 2 1 1 1 1 2 2 1 1 2 2 2 2 2 2 2
9 9 9 9 10 9 8 6 7 7 7 5 5 5 5 5 5 5 5 5 5 5 5 5 5 6 7 7 7 7 7 7 7 7 6 6 6 5 5 5 4 3 2 2 1 2 2 2 2 2 2 2 2 2 1 1 1 1 1 2 2 2 2 2 2 2 2 2 2
9 9 9 9 11 10 9 8 8 8 7 6 5 5 5 4 4 4 4 5 5 5 5 5 5 6 6 7 8 8 8 8 8 7 7 6 6 6 5 5 4 3 3 2 2 1 1 2 2 1 2 2 2 1 1 1 1 1 1 1 2 2 2 2 2 1 1 1 1
9 9 9 8 10 9 8 8 9 8 7 6 6 6 6 5 5 5 5 5 5 6 6 7 6 6 6 7 7 8 8 8 8 7 7 7 6 6 5 5 5 4 3 2 2 1 1 1 1 1 2 2 2 1 1 1 1 1 1 1 1 2 2 2 2 1 1 1 1
9 9 9 9 9 9 8 8 8 8 7 7 8 8 8 7 7 7 7 6 6 6 6 6 7 7 7 7 7 7 7 7 7 8 8 7 7 6 6 5 5 5 4 3 2 2 1 1 1 2 2 2 2 1 1 1 1 1 1 1 1 2 2 2 2 2 2 2 2
7 8 8 9 9 9 10 9 9 8 7 7 8 9 9 9 9 8 8 7 6 6 6 6 7 7 7 7 7 7 7 7 7 8 8 8 7 6 6 5 5 5 4 4 3 2 2 1 2 2 2 2 2 2 1 1 1 1 1 1 1 1 2 2 2 2 2 2 2
6 6 7 8 8 9 10 10 10 9 8 8 8 9 9 9 9 9 8 7 6 6 6 6 7 7 7 7 7 7 7 7 7 8 8 8 8 7 6 5 5 4 4 3 3 3 2 1 2 2 2 2 2 2 1 1 1 1 1 1 1 1 1 1 2 2 2 3 2
7 7 7 7 8 9 9 9 9 9 9 9 9 9 9 10 9 8 7 6 6 7 6 6 7 7 8 8 7 7 6 6 7 8 8 8 8 7 6 5 5 4 4 3 3 3 3 2 2 2 2 2 3 2 1 1 1 1 0 1 1 1 1 1 1 2 2 2 2
8 7 7 7 8 9 9 9 8 8 8 8 9 9 9 9 8 7 7 7 7 7 7 7 7 8 8 7 7 7 6 6 6 7 8 8 8 8 7 6 6 5 4 3 2 2 3 3 3 3 2 2 3 2 2 1 1 1 0 0 1 1 1 1 2 2 2 2 2
8 7 7 7 8 8 9 8 7 7 7 8 8 8 8 8 7 7 8 8 8 8 7 7 7 7 7 6 6 6 6 6 6 7 7 8 8 8 7 6 6 5 4 3 2 2 3 3 3 3 3 3 3 2 2 2 1 1 0 0 1 1 1 1 1 1 1 2 2
8 8 7 7 8 8 8 8 7 7 7 8 8 8 7 7 8 8 8 9 8 7 7 7 7 7 7 6 6 6 6 6 6 6 7 7 8 8 7 7 6 5 5 3 3 3 3 3 4 4 4 3 3 2 2 2 2 1 1 0 1 1 1 1 1 1 1 2 2
9 8 8 8 8 8 8 7 6 6 7 8 8 7 7 7 8 8 8 8 8 7 7 6 6 6 6 6 6 6 6 6 6 6 6 7 7 8 7 7 6 6 5 3 3 3 3 3 4 4 4 4 3 3 3 3 2 2 2 1 1 1 1 1 1 1 2 2 1
9 9 9 9 8 8 7 7 6 6 7 8 7 7 7 7 7 8 8 8 8 7 7 6 6 6 6 6 6 6 6 6 6 6 6 6 7 7 7 7 6 6 5 4 3 3 3 4 4 4 4 4 3 3 3 2 3 2 2 2 2 2 2 1 1 1 2 2 1
10 10 10 9 9 8 7 7 6 6 7 7 7 7 7 7 7 7 8 8 7 7 7 7 6 6 6 6 6 6 6 6 6 6 6 6 6 7 7 7 6 6 5 4 3 3 3 3 3 3 4 4 3 3 3 2 2 2 3 3 3 2 2 2 2 2 2 2 2
11 11 10 10 10 9 8 7 6 6 7 7 7 7 7 7 7 7 8 8 7 7 7 7 7 6 6 6 6 5 5 5 5 5 5 5 6 6 6 6 6 6 5 5 4 3 3 3 3 3 3 3 3 3 3 2 2 2 2 2 3 3 2 2 2 2 2 2 2
11 11 11 11 10 10 9 8 8 8 8 8 8 7 7 7 7 7 7 8 8 8 8 8 7 6 6 6 6 5 5 5 5 5 5 5 5 5 5 5 5 5 5 5 4 4 3 3 3 3 3 3 3 3 2 2 2 2 2 2 2 2 2 2 2 2 2 2 2
12 12 11 11 11 10 10 9 9 9 9 8 8 7 7 7 8 8 8 7 8 8 9 9 7 7 7 7 6 5 5 5 6 5 5 5 5 5 4 4 4 4 4 4 4 4 4 3 3 3 3 2 2 2 2 2 2 2 2 2 2 2 2 2 2 2 2 2 2
12 12 12 11 11 10 10 10 9 9 8 8 8 8 8 8 8 8 8 8 8 8 9 9 8 8 7 7 7 6 5 4 6 6 6 5 5 4 4 4 3 3 3 3 3 3 3 3 3 3 3 3 2 2 2 2 2 2 2 2 2 2 2 2 2 2 2 2 2
12 12 11 11 10 10 10 9 9 9 9 8 9 9 8 8 8 8 8 8 8 9 9 9 8 8 8 7 7 6 5 4 6 6 6 6 5 5 4 4 3 3 2 2 2 2 3 2 2 2 2 3 2 2 2 2 2 1 1 1 1 2 2 2 2 2 2 2 2
11 11 10 10 10 10 10 10 9 9 9 9 9 9 9 8 8 8 8 8 8 8 8 8 8 8 8 7 7 7 6 5 6 6 6 5 5 4 4 4 4 3 2 2 2 2 2 2 2 2 2 2 2 2 2 2 2 1 1 1 1 1 1 1 2 2 2 2 2
10 10 10 10 10 10 10 10 10 10 10 9 9 9 9 9 8 8 8 7 7 8 7 7 7 7 7 7 7 7 7 6 6 6 6 5 4 4 4 4 4 3 3 2 2 2 2 1 1 1 1 1 2 2 2 2 2 2 1 1 1 1 1 1 1 1 2 2 2
11 10 10 9 10 11 11 11 11 10 10 10 10 9 9 9 9 8 8 8 8 8 7 6 6 7 7 7 7 7 7 7 7 6 5 5 4 4 4 3 3 3 3 2 3 3 2 2 1 1 0 1 1 1 2 2 2 2 2 1 1 0 0 0 0 1 1 2 2
11 11 11 10 11 11 11 11 11 11 10 10 10 10 10 9 9 8 8 8 8 8 8 7 7 7 7 7 7 7 7 7 6 6 5 4 4 3 3 3 2 3 3 3 4 4 3 2 1 1 1 1 1 1 1 1 2 2 2 2 1 1 0 1 1 1 2 2 2
12 12 12 12 12 12 12 11 11 11 11 10 10 10 9 9 8 8 9 9 8 8 8 8 7 7 6 6 6 5 5 5 6 6 5 5 4 3 3 2 2 3 3 4 4 4 3 2 1 1 1 1 1 1 1 0 0 1 2 2 2 2 1 0 1 2 2 2 2
12 12 12 12 12 12 12 11 11 11 11 11 10 10 9 9 9 9 9 9 8 8 8 7 6 6 6 5 5 5 5 4 4 5 5 5 5 4 3 2 2 3 3 5 4 4 3 2 2 1 1 1 0 0 0 1 0 0 1 1 2 2 2 2 2 2 2 2 2
12 12 12 13 12 12 12 11 11 11 11 11 11 10 9 9 9 9 9 8 8 7 6 5 5 5 4 4 5 5 5 4 4 4 4 4 4 4 3 3 3 4 5 5 5 4 3 3 3 3 2 1 1 1 0 0 1 0 0 1 1 2 3 3 3 2 2 2 2
13 13 13 13 13 12 12 12 12 11 11 11 10 10 10 10 10 9 9 8 8 7 5 5 4 4 4 4 5 5 5 4 4 3 3 3 3 3 3 3 4 5 6 7 6 5 4 4 4 4 3 3 1 1 1 1 1 1 1 1 1 2 2 3 2 2 2 2 2
12 13 13 13 13 12 12 11 11 11 11 10 10 10 10 10 10 9 9 8 7 6 5 5 4 5 5 5 5 4 4 4 4 3 3 3 3 2 2 3 4 5 6 7 6 6 5 5 4 4 4 3 2 1 1 1 1 1 1 1 1 2 2 2 2 2 2 2 2
12 12 13 13 12 12 11 11 11 11 10 9 10 10 10 10 9 8 8 7 6 6 6 5 6 6 6 5 5 4 4 4 4 3 3 3 3 2 2 3 4 5 7 8 7 6 5 5 5 4 4 3 2 1 1 1 1 1 1 2 2 2 2 2 2 2 2 2 2
12 12 12 12 12 12 11 11 11 10 10 10 10 10 9 9 8 7 6 6 6 6 6 5 6 6 6 5 5 4 5 4 4 3 3 3 3 2 2 2 3 5 6 8 7 6 6 5 4 4 4 3 2 1 1 1 1 2 2 2 3 3 3 2 3 3 3 3 3
11 12 12 12 12 12 11 11 10 10 10 10 9 9 9 9 8 7 6 6 6 6 6 5 6 6 6 5 5 5 5 5 4 4 4 3 3 2 2 2 2 4 6 8 7 7 6 5 4 4 3 3 2 1 1 1 2 2 2 3 3 3 3 3 3 3 4 4 4
11 11 12 12 12 11 11 10 10 10 10 9 9 9 9 8 8 7 6 5 5 5 5 5 5 5 5 5 5 5 5 4 4 4 4 4 3 3 2 2 2 4 7 8 7 7 6 5 5 4 4 3 2 1 1 2 2 2 3 3 3 3 4 4 4 4 4 4 4
11 12 12 11 11 11 10 10 10 10 10 9 9 9 8 7 7 7 6 5 5 4 4 4 4 4 3 4 4 4 4 4 4 4 4 3 3 3 2 2 2 4 7 8 7 7 6 6 5 5 4 3 1 1 1 2 2 3 3 4 4 4 4 4 4 4 5 5 4
11 12 12 11 11 11 10 10 10 10 10 9 9 9 8 7 6 6 5 5 5 4 4 3 3 3 3 3 3 3 3 4 3 3 3 3 3 3 2 2 2 4 6 7 7 7 6 6 5 5 4 2 1 1 2 2 2 3 3 4 4 4 4 4 4 4 4 4 4
11 11 12 12 11 11 10 10 10 10 10 9 9 8 7 7 6 5 5 5 5 4 4 4 4 4 3 3 3 3 3 3 3 3 3 3 3 3 2 2 2 3 4 6 6 6 6 6 6 5 4 2 1 1 1 2 2 2 3 3 4 4 4 4 4 4 4 4 4
10 11 11 11 11 10 10 10 10 10 10 9 7 7 6 6 5 5 4 4 4 4 4 4 4 4 4 4 4 3 3 3 3 3 3 3 3 3 3 2 2 2 3 4 5 5 5 6 6 5 4 2 2 2 2 1 2 2 3 3 3 3 4 3 3 3 3 4 5
10 11 11 11 11 10 10 10 10 10 9 8 7 7 6 5 4 4 4 4 4 4 4 4 4 4 4 5 4 3 3 3 3 3 3 3 3 4 4 3 3 3 3 4 5 5 6 6 6 6 5 3 3 2 2 2 2 2 3 3 3 3 3 3 3 2 3 4 6
10 10 11 11 11 10 10 10 9 9 8 8 8 7 6 5 5 4 4 4 4 4 4 4 4 4 5 5 4 3 3 2 2 3 3 3 4 4 4 3 3 3 3 4 5 6 6 6 7 7 5 3 3 3 2 2 2 2 3 3 3 3 3 3 3 2 3 3 5
9 10 10 10 10 10 10 10 9 8 7 7 7 6 6 6 5 4 4 3 4 4 4 4 4 5 5 5 4 3 3 2 2 3 3 3 4 4 4 3 3 3 3 4 6 7 7 7 8 7 6 4 3 3 2 2 2 2 3 3 3 2 2 3 2 2 2 2 3
Wind_Direction
160 157 157 160 162 163 163 162 157 157 159 162 163 163 161 157 159 162 164 161 163 164 165 164 163 158 152 149 151 152 153 150 143 139 135 133 132 132 133 135 137 141 147 154 156 153 146 135 127 120 120 125 124 122 114 107 86 69 67 76 73 63 54 49 31 17 11 7 1
161 157 155 156 157 156 155 153 151 153 157 160 159 158 156 155 157 159 160 160 160 158 156 154 151 148 146 147 149 149 149 147 141 137 134 133 135 136 137 140 145 150 155 162 161 156 149 142 135 135 139 149 136 134 139 160 147 112 91 84 86 81 69 61 42 27 16 8 1
160 155 153 154 154 154 153 152 150 151 152 153 151 149 149 149 151 154 155 154 147 143 140 141 143 143 144 146 146 147 147 144 140 136 134 133 134 136 138 140 142 146 153 159 156 151 148 143 139 142 149 150 134 136 149 170 148 126 114 110 107 93 79 70 53 38 25 15 7
157 155 154 156 156 156 155 154 151 150 149 146 142 140 139 139 142 143 141 136 133 133 135 138 140 142 144 144 145 145 145 143 140 137 135 133 136 137 139 138 139 145 150 152 148 146 147 142 138 139 140 132 123 124 136 153 134 131 131 134 121 105 92 80 67 54 40 25 14
159 159 159 159 158 157 155 151 149 148 146 141 138 134 133 131 132 132 131 129 132 136 137 137 139 142 144 144 145 145 145 144 142 140 137 137 139 141 141 140 142 145 149 149 149 151 151 138 130 126 124 118 116 122 134 142 127 134 140 139 122 112 103 91 79 69 59 45 24
161 160 158 156 154 152 149 148 147 146 143 140 138 136 135 133 134 135 136 138 137 136 134 134 137 141 143 144 145 146 146 146 144 142 140 140 143 144 145 144 144 144 145 146 150 155 152 133 122 118 115 110 105 106 107 100 104 118 125 127 123 116 109 105 104 99 87 76 48
158 157 155 153 150 148 147 148 146 143 141 140 141 142 143 142 141 141 141 140 136 134 135 137 141 144 145 146 147 148 149 149 144 142 141 142 144 146 147 146 144 143 145 148 150 156 155 130 122 119 117 112 105 93 71 55 65 79 104 124 127 119 120 126 132 127 116 102 81
154 154 153 152 149 148 148 148 146 145 145 146 148 148 147 144 143 142 140 138 139 141 142 143 147 148 148 149 151 152 152 149 146 143 142 143 145 146 146 143 142 143 146 149 152 157 160 136 120 121 123 116 110 102 83 56 54 63 87 115 115 124 134 148 148 141 131 120 104
151 151 150 148 147 148 148 149 148 149 150 152 151 150 148 146 145 144 143 144 145 145 144 146 149 149 149 150 153 155 155 154 149 146 145 144 144 144 143 139 139 142 144 147 150 153 150 131 115 113 114 111 111 109 103 79 67 59 70 92 83 92 123 143 139 131 122 115 108
154 151 147 145 146 146 146 147 148 149 150 151 150 149 148 148 147 147 147 147 143 142 144 149 151 150 150 151 154 157 158 156 151 148 145 144 144 143 142 140 140 140 142 147 147 144 139 126 116 111 109 107 113 118 119 100 88 73 56 63 69 52 33 49 91 99 101 103 106
153 150 147 146 146 144 143 144 146 148 148 149 149 149 148 150 149 147 144 140 139 144 149 152 152 152 152 153 156 157 158 157 152 148 145 143 143 142 141 140 139 139 140 144 138 132 127 124 124 123 121 118 121 124 126 116 100 87 74 52 83 73 52 35 57 76 89 100 97
150 147 144 142 142 141 141 144 147 148 148 149 149 149 149 150 148 143 139 137 141 146 150 152 151 151 152 152 154 155 154 152 148 144 142 142 140 139 138 136 135 135 136 139 131 123 120 125 131 135 137 134 132 134 134 129 112 104 86 32 72 80 79 59 56 65 82 89 82
146 143 141 139 139 139 141 144 146 147 148 149 149 149 148 148 143 139 138 140 143 146 148 150 148 147 147 149 150 150 149 148 145 142 140 139 137 136 134 133 132 131 133 135 128 123 122 126 133 138 142 142 141 143 143 139 132 128 126 93 74 85 100 107 92 82 78 77 71
145 144 143 142 141 141 142 144 146 146 147 147 147 146 144 142 139 138 138 140 142 143 144 145 143 143 143 144 144 145 145 143 140 138 137 137 135 133 133 132 131 131 131 133 128 126 126 129 133 136 138 141 144 145 146 145 144 146 146 142 134 140 153 167 144 110 94 88 83
147 147 146 144 145 144 145 145 146 145 145 145 144 143 141 139 139 138 138 138 140 140 140 139 138 137 137 137 139 141 141 139 137 136 136 135 133 133 133 133 131 131 131 132 130 128 130 132 134 133 135 137 142 146 149 149 150 153 156 158 164 169 178 182 161 133 120 116 113
150 150 149 148 149 148 148 147 147 145 145 144 143 141 139 140 140 138 138 138 138 137 137 136 135 133 133 134 135 135 135 135 135 135 135 135 134 133 132 132 133 133 132 132 131 130 130 132 131 131 132 135 141 146 151 154 155 158 162 166 169 173 176 179 167 153 143 132 132
153 153 153 153 153 152 150 149 148 147 146 145 143 141 141 141 141 140 140 139 138 137 136 135 134 133 133 134 134 133 133 132 133 134 135 136 134 133 132 132 133 134 134 134 134 133 132 129 126 126 129 133 142 149 154 156 157 161 166 169 170 172 174 173 169 163 154 140 150
156 156 156 156 155 154 152 149 148 147 146 145 143 142 142 142 141 140 140 140 139 138 137 134 132 132 133 135 135 134 132 131 131 131 131 130 129 127 127 128 130 131 132 134 137 138 139 135 130 126 128 134 142 149 154 156 160 165 170 169 173 173 174 171 169 164 157 150 169
157 157 158 158 156 154 151 148 147 146 146 145 142 141 141 140 139 139 138 139 139 138 136 133 132 132 133 135 134 133 131 130 129 127 125 121 118 117 118 120 121 123 126 131 135 139 142 141 139 138 139 142 148 153 155 157 162 167 172 173 175 177 175 173 169 163 160 162 177
158 158 158 158 155 151 148 146 145 144 142 141 138 138 138 138 136 136 137 139 138 135 133 133 133 133 133 133 132 130 129 127 125 122 119 115 113 114 115 117 116 117 120 124 131 136 140 143 146 149 152 155 158 161 164 162 167 173 178 178 180 182 180 175 169 165 166 171 180
157 157 156 154 150 147 144 142 140 138 136 133 133 133 132 132 131 132 134 134 132 130 130 131 132 133 134 132 129 127 124 119 117 116 115 112 113 115 117 116 114 109 107 110 120 128 135 141 146 151 155 158 162 165 167 164 169 178 188 189 192 190 186 177 171 172 178 186 190
154 153 150 147 143 140 137 134 132 130 129 128 127 126 125 124 124 124 124 123 123 124 126 129 130 131 131 129 126 122 118 113 110 109 109 107 107 107 108 107 105 101 96 95 102 110 117 124 137 147 152 159 166 168 168 166 170 180 194 203 206 200 193 178 173 178 186 196 198
148 145 141 138 134 132 130 128 126 125 124 123 122 121 120 119 118 117 116 115 117 120 122 124 124 123 122 119 117 115 112 109 107 105 103 101 100 98 97 98 101 103 103 101 96 95 94 95 105 133 155 163 172 176 174 172 172 179 188 203 211 215 204 185 177 185 199 208 209
141 138 135 131 129 127 127 125 124 123 122 122 121 120 119 118 117 115 113 113 114 115 116 117 115 113 110 108 107 109 110 111 110 107 103 100 99 97 96 97 102 107 106 98 91 87 82 74 64 56 85 133 160 170 172 167 168 170 173 178 177 181 347 345 292 238 228 229 223
134 131 129 127 127 126 126 125 125 125 124 123 122 121 120 120 119 117 115 112 112 110 110 109 107 106 104 102 102 104 107 111 114 114 111 107 103 103 101 102 106 105 102 97 98 95 89 82 68 49 37 41 54 82 118 148 161 162 160 157 147 125 35 341 318 292 266 246 237
129 127 127 127 127 126 126 126 126 125 125 124 123 123 123 123 121 118 115 112 110 108 107 106 106 106 105 102 100 99 101 106 113 117 119 119 116 113 112 112 110 108 107 113 116 116 117 120 107 82 58 38 34 29 27 35 133 144 146 143 142 140 145 267 284 284 279 267 253
126 126 127 127 126 127 127 127 126 126 126 126 126 127 127 126 122 118 115 113 111 109 106 106 107 108 107 103 101 100 100 102 108 114 120 124 127 129 130 126 118 116 121 133 138 144 153 165 168 162 141 102 80 58 9 330 335 97 139 143 149 156 167 194 226 249 266 279 278
127 128 128 126 126 127 127 127 127 128 129 130 130 129 128 124 121 119 117 115 113 110 108 108 109 108 105 102 104 105 105 104 105 108 114 119 128 135 140 137 128 131 139 149 155 165 177 187 194 195 189 169 162 166 180 229 279 274 223 177 172 173 179 188 199 211 232 265 281
128 128 128 128 128 129 129 130 131 131 131 131 130 128 126 123 121 120 119 117 115 114 115 116 111 106 104 107 109 108 107 107 106 106 107 111 121 133 141 138 136 144 153 161 168 177 187 195 201 205 205 194 182 173 180 188 219 235 234 214 192 183 181 185 187 192 206 233 257
129 129 129 130 130 131 132 133 133 132 131 130 129 126 124 122 121 121 121 120 120 122 122 120 113 111 112 116 114 112 111 113 111 109 110 115 127 140 145 140 142 151 162 170 176 183 190 198 202 208 210 203 189 180 184 197 204 217 228 228 207 193 184 181 184 192 204 218 236
131 131 131 131 131 132 133 133 131 130 130 129 127 125 124 123 124 125 125 124 124 122 119 114 113 115 117 118 117 119 120 121 118 118 122 129 141 150 150 139 142 155 167 175 180 186 192 198 202 208 212 209 197 186 194 221 227 230 231 232 224 210 198 188 190 197 205 213 224
132 132 131 131 131 131 131 131 130 129 128 127 126 125 124 125 125 125 123 121 120 118 116 113 114 117 118 119 120 123 127 128 131 135 138 141 146 148 145 139 147 160 171 179 183 187 192 197 201 208 214 215 209 203 213 236 245 245 245 243 235 223 211 201 199 204 209 213 216
132 131 131 130 130 130 130 129 128 127 126 125 124 123 122 122 119 117 115 115 116 118 119 120 121 124 126 128 130 132 136 139 143 146 148 148 145 143 143 151 157 168 174 180 184 187 191 196 200 208 217 220 216 214 224 241 249 252 252 250 243 233 222 210 208 209 212 215 215
132 131 130 129 129 128 127 127 126 124 122 121 119 118 118 117 115 115 115 115 116 118 120 123 126 129 132 133 134 136 140 143 145 147 149 149 143 142 148 167 176 177 178 181 184 188 191 196 200 208 216 223 217 215 226 240 250 252 253 252 249 242 232 222 216 215 215 216 216
132 130 128 127 126 125 124 123 122 120 118 116 115 114 114 114 116 117 118 118 115 111 112 114 117 118 117 116 120 126 133 138 140 143 142 140 137 140 153 175 187 185 184 184 187 191 194 197 201 206 211 214 212 215 225 235 244 248 248 250 250 247 241 233 225 221 218 216 215
130 128 126 125 123 122 121 120 118 117 116 115 115 114 113 113 115 116 117 115 112 110 109 109 106 105 105 105 109 119 128 135 135 134 133 130 133 140 156 178 194 193 190 188 191 194 197 200 203 206 207 202 200 214 227 232 240 244 247 249 250 248 244 238 232 227 223 218 215
127 126 124 122 121 120 119 118 117 116 116 117 117 117 117 116 115 115 116 115 114 116 117 116 114 114 117 119 119 122 126 127 125 125 128 133 139 147 161 182 203 206 201 196 197 199 202 205 207 207 203 185 191 211 230 239 244 248 250 251 251 250 246 240 235 229 226 223 219
123 122 121 120 120 119 119 118 118 119 120 120 120 120 119 118 118 121 124 124 124 126 127 124 123 125 125 122 117 115 115 118 122 128 137 147 154 160 167 182 200 212 213 209 210 212 214 215 217 213 203 179 183 198 218 237 246 249 252 251 254 254 252 247 239 234 232 231 230
118 119 119 120 120 120 119 120 120 122 123 123 122 121 120 120 123 129 132 131 128 127 127 125 125 124 121 115 112 111 115 121 131 142 153 165 170 171 173 181 196 208 216 221 226 229 230 230 229 223 211 183 179 185 201 216 233 244 249 250 255 260 262 259 251 245 242 242 243
115 117 118 120 121 122 122 122 123 124 125 125 125 124 124 124 127 129 127 116 112 112 115 116 118 117 116 115 116 120 127 138 151 160 167 177 182 182 182 185 196 207 219 230 238 242 243 242 240 233 221 185 175 178 189 200 223 239 246 250 252 258 265 269 263 256 252 252 251
113 116 118 120 122 123 123 124 124 125 125 126 127 128 127 125 124 120 115 104 99 101 106 110 113 115 117 121 125 132 144 161 173 178 179 181 187 189 190 189 200 211 223 233 242 247 250 250 247 241 228 193 176 174 181 190 213 233 244 248 246 250 259 270 275 272 264 259 258